Погода в Чарваке

Узбекистан     41°38′03″N   69°56′16″E
темп.,
°C
ветер,
м/с
пор.,
м/с
влажн.,
%
обл.,
%
осадки,
мм/ч
давл.,
гПа
погр.,
м
27 февраля, сб
сб2723:00−12в2265100 0.0 103122
02:00−11в2261100 0.0 102922
05:00−11в2258100 0.1 103021
08:00−10в2267100 0.1 102934
11:00−8юв2483100 0.2 1030567
14:00−6ю3486100 0.3 1030597
17:00−7юв1283100 0.4 103049
20:00−11всв337875 0.0 103226
28 февраля, вс
вс2823:00−11всв447037 0.0 103138
02:00−12всв55690 0.0 103053
05:00−12всв65650 0.0 102964
08:00−11всв55640 0.0 102873
11:00−2всв44660 0.0 1025173
14:00+1в23910 0.0 1022104
17:00−1в33630 0.0 102129
20:00−6всв55540 0.0 102241
1 марта, пн
пн123:00−5всв555932 0.0 102259
02:00−5всв5556100 0.0 102153
05:00−5всв5554100 0.0 102149
08:00−4всв5555100 0.0 102153
11:00+1в338599 0.0 102069
14:00+3в239813 0.0 101923
17:00+2в22547 0.0 101922
20:00−2всв44420 0.0 102125
2 марта, вт
вт223:00−3всв55490 0.0 102137
02:00−4всв55530 0.0 102140
05:00−3всв555850 0.0 102139
08:00−1всв4465100 0.0 102243
11:00+2в2299100 0.0 102226
14:00+2в22100100 0.0 102025
17:00+2вюв3378100 0.1 102032
20:00−1юв2291100 0.2 102233
3 марта, ср
ср323:00−1вюв2298100 0.8 102244
02:00−1юв2298100 1.0 102130
05:00−1юв1199100 2.8 102135
08:00−1юв2299100 2.4 1021103
11:000ю23100100 5.3 1021166
14:000ююз23100100 3.3 1020228
17:00−1ю2399100 7.6 1020152
20:00−1вюв2299100 2.1 1020106